Regional Weather Roundup
Issued by NWS Bismarck, ND

Home | Current Version | Previous Version | Text Only | Print | Product List | Glossary On
Versions: 1 2 3 4 5 6 7 8 9 10 11 12 13 14 15 16 17 18 19 20 21 22 23 24 25 26 27 28 29 30 31 32 33 34 35 36 37 38 39 40 41 42 43 44 45 46 47 48 49 50
000
ASUS43 KBIS 051902
RWRBIS

NWR BROADCAST TEXT
NATIONAL WEATHER SERVICE BISMARCK ND
200 PM CDT SUN JUL 05 2015

NOTE: "FAIR" INDICATES FEW OR NO CLOUDS BELOW 12,000 FEET WITH NO
SIGNIFICANT WEATHER AND/OR OBSTRUCTIONS TO VISIBILITY.


CITY           SKY/WX    TMP DP  RH WIND       PRES   REMARKS
WILLISTON      MOSUNNY   76  52  43 N16G24    29.97R HAZE
MINOT          PTSUNNY   75  62  64 NW17G24   29.87R HAZE
MINOT AFB      NOT AVBL
BISMARCK       MOSUNNY   78  64  61 N14       29.84R
DICKINSON      CLOUDY    70  58  65 N15       29.93R
GARRISON         N/A     75  60  59 N12G18    29.89R
HETTINGER ARPT CLOUDY    73  62  68 N18G26    29.92R
JAMESTOWN      PTSUNNY   72  65  78 NW5       29.78S
HAZEN          MOCLDY    73  59  60 N15G21    29.89R
OAKES            N/A     75  73  94 NW7       29.76F
STANLEY        FAIR      70  63  78 N14G21    29.94R HAZE
$$

CITY           SKY/WX    TMP DP  RH WIND       PRES   REMARKS
GRAND FORKS    RAIN      66  66 100 W6        29.75R FOG
GRAND FORKS AF DRIZZLE   68  66  94 NW3       29.76R
DEVILS LAKE    PTSUNNY   72  63  73 N13       29.81R
FARGO          CLOUDY    81  68  64 W7        29.76S
CAVALIER       CLOUDY    68  66  94 N5        29.78R
GRAFTON        MOCLDY    66  66 100 N7        29.77R
GWINNER        FAIR      81  72  74 W10       29.78S
LANGDON        CLOUDY    72  66  83 N9        29.83R
$$

CITY           SKY/WX    TMP DP  RH WIND       PRES   REMARKS
ABERDEEN       PTSUNNY   86  70  58 NW7       29.77S HX  90
MOBRIDGE       PTSUNNY   82  68  62 E13       29.74F
BUFFALO          N/A     77  60  55 N20       29.87R
RAPID CITY     CLOUDY    77  64  64 N17       29.90R
GLASGOW        MOSUNNY   71  45  39 N20       30.06R
SIDNEY         MOSUNNY   73  50  43 NW13      29.98S
WOLF POINT     MOSUNNY   75  49  39 N16       30.01R HAZE
GLENDIVE       CLOUDY    70  54  56 N13       30.02R
MILES CITY     CLOUDY    67  51  56 N13       30.03R
BAKER          CLOUDY    69  58  67 NW15G26   30.00R
$$

CITY           SKY/WX    TMP DP  RH WIND       PRES   REMARKS
BILLINGS       CLOUDY    62  48  60 NE9       30.13S
GREAT FALLS    LGT RAIN  51  50  96 N10       30.17S
$$



USA.gov is the U.S. government's official web portal to all federal, state and local government web resources and services.